Overview Statistics Trail Chart Weather Telemetry Raw packets
 

This is the latest recevied weather packets stored in our database for station/object KC5DAQ-2. If no packets are shown the sender has not sent any weather packets the latest 10 day(s).

<< 44 45 46 47 48 49 50 >>
Time Temp. Humidity Pressure Rain* Wind** Luminosity Snow
1788651062 26.67° C 92% 1004 hPa 3.56 mm - 21 W/m² -
1788651003 26.67° C 92% 1003.9 hPa 4.06 mm - 25 W/m² -
1788650942 26.67° C 92% 1004 hPa 4.57 mm - 25 W/m² -
1788650884 26.67° C 92% 1004 hPa 4.83 mm - 26 W/m² -
1788650823 26.67° C 92% 1004 hPa 5.33 mm - 26 W/m² -
1788650764 26.67° C 91% 1004 hPa 6.1 mm - 26 W/m² -
1788650704 26.67° C 91% 1004.1 hPa 6.6 mm - 26 W/m² -
1788650644 26.67° C 91% 1004.1 hPa 6.86 mm - 26 W/m² -
1788650582 27.22° C 91% 1004.2 hPa 7.11 mm - 26 W/m² -
1788650525 27.22° C 91% 1004.2 hPa 7.62 mm - 23 W/m² -
1788650465 27.22° C 90% 1004.3 hPa 7.62 mm - 23 W/m² -
1788650405 27.22° C 90% 1004.2 hPa 7.87 mm - 23 W/m² -
1788650344 27.22° C 90% 1004.4 hPa 7.87 mm - 23 W/m² -
1788650283 27.22° C 90% 1004.3 hPa 7.87 mm - 23 W/m² -
1788650225 27.22° C 90% 1004.4 hPa 7.87 mm - 21 W/m² -
1788650166 27.22° C 90% 1004.5 hPa 7.87 mm - 21 W/m² -
1788650104 27.22° C 89% 1004.6 hPa 7.87 mm - 21 W/m² -
1788650043 27.22° C 89% 1004.6 hPa 7.87 mm - 18 W/m² -
1788649982 27.78° C 89% 1004.5 hPa 7.87 mm - 18 W/m² -
1788649924 27.78° C 88% 1004.6 hPa 7.87 mm - 18 W/m² -
1788649864 27.78° C 88% 1004.6 hPa 7.87 mm - 18 W/m² -
1788649803 27.78° C 88% 1004.6 hPa 7.87 mm - 18 W/m² -
1788649742 27.78° C 88% 1004.6 hPa 7.87 mm - 18 W/m² -
1788649683 27.78° C 88% 1004.5 hPa 7.87 mm - - -
1788649623 27.78° C 88% 1004.6 hPa 7.87 mm - - -

* Rain latest hour (hover to see other rain measurements)
** Current wind speed in m/s (hover to see current wind gust speed)